Time,TemperatureF,DewpointF,PressureIn,WindDirection,WindDirectionDegrees,WindSpeedMPH,WindSpeedGustMPH,Humidity,HourlyPrecipIn,Conditions,Clouds,dailyrainin,SoftwareType,DateUTC
2013-04-01 00:03:00,48.0,39.4,31.29,NNW,344,0.0,0.0,72,0.00,,---,0.00,VWS V14.01,2013-04-01 07:03:00,
2013-04-01 00:09:00,48.0,39.1,31.30,NNW,342,0.0,0.0,71,0.00,,---,0.00,VWS V14.01,2013-04-01 07:09:00,
2013-04-01 00:14:00,48.0,39.4,31.30,NNW,338,0.0,0.0,72,0.00,,---,0.00,VWS V14.01,2013-04-01 07:14:00,
2013-04-01 00:19:00,47.9,39.7,31.30,NNW,338,0.0,0.0,73,0.00,,---,0.00,VWS V14.01,2013-04-01 07:19:00,
2013-04-01 00:24:00,47.7,39.5,31.30,NNW,334,0.0,0.0,73,0.00,,---,0.00,VWS V14.01,2013-04-01 07:24:00,
2013-04-01 00:29:00,47.7,39.5,31.30,NNW,348,0.0,0.0,73,0.00,,---,0.00,VWS V14.01,2013-04-01 07:29:00,
2013-04-01 00:35:00,47.7,39.5,31.30,NNW,346,0.0,0.0,73,0.00,,---,0.00,VWS V14.01,2013-04-01 07:35:00,
2013-04-01 00:40:00,47.6,39.7,31.30,NNW,336,0.0,0.0,74,0.00,,---,0.00,VWS V14.01,2013-04-01 07:40:00,
2013-04-01 00:45:00,47.6,39.7,31.30,NNW,342,0.0,0.0,74,0.00,,---,0.00,VWS V14.01,2013-04-01 07:45:00,
2013-04-01 00:50:00,47.4,39.5,31.30,North,360,0.0,0.0,74,0.00,,---,0.00,VWS V14.01,2013-04-01 07:50:00,
2013-04-01 00:55:00,47.4,39.5,31.30,NNW,346,0.0,0.0,74,0.00,,---,0.00,VWS V14.01,2013-04-01 07:55:00,
2013-04-01 01:00:00,47.4,39.9,31.30,NNW,348,0.0,0.0,75,0.00,,---,0.00,VWS V14.01,2013-04-01 08:00:00,
2013-04-01 01:05:00,47.3,39.8,31.30,NNW,342,0.0,0.0,75,0.00,,---,0.00,VWS V14.01,2013-04-01 08:05:00,
2013-04-01 01:10:00,47.3,40.1,31.30,NNW,331,0.0,0.0,76,0.00,,---,0.00,VWS V14.01,2013-04-01 08:10:00,
2013-04-01 01:15:00,47.3,39.8,31.30,NNW,338,0.0,0.0,75,0.00,,---,0.00,VWS V14.01,2013-04-01 08:15:00,
2013-04-01 01:20:00,47.1,39.9,31.30,NNW,342,0.0,0.0,76,0.00,,---,0.00,VWS V14.01,2013-04-01 08:20:00,
2013-04-01 01:25:00,47.0,40.2,31.30,NNW,340,0.0,0.0,77,0.00,,---,0.00,VWS V14.01,2013-04-01 08:25:00,
2013-04-01 01:31:00,47.0,40.2,31.30,NW,322,0.0,0.0,77,0.00,,---,0.00,VWS V14.01,2013-04-01 08:31:00,
2013-04-01 01:36:00,46.8,40.0,31.30,NNW,337,0.0,0.0,77,0.00,,---,0.00,VWS V14.01,2013-04-01 08:36:00,
2013-04-01 01:41:00,46.8,40.0,31.30,NNW,338,0.0,0.0,77,0.00,,---,0.00,VWS V14.01,2013-04-01 08:41:00,
2013-04-01 01:46:00,46.8,40.0,31.30,NNW,338,0.0,0.0,77,0.00,,---,0.00,VWS V14.01,2013-04-01 08:46:00,
2013-04-01 01:51:00,46.8,40.0,31.30,NNW,327,0.0,0.0,77,0.00,,---,0.00,VWS V14.01,2013-04-01 08:51:00,
2013-04-01 01:56:00,46.8,40.0,31.30,NW,323,0.0,0.0,77,0.00,,---,0.00,VWS V14.01,2013-04-01 08:56:00,
2013-04-01 02:01:00,46.8,40.0,31.30,NNW,332,0.0,0.0,77,0.00,,---,0.00,VWS V14.01,2013-04-01 09:01:00,
2013-04-01 02:06:00,46.7,39.9,31.31,NW,314,0.0,0.0,77,0.00,,---,0.00,VWS V14.01,2013-04-01 09:06:00,
2013-04-01 02:12:00,46.8,39.7,31.31,NNW,340,0.0,0.0,76,0.00,,---,0.00,VWS V14.01,2013-04-01 09:12:00,
2013-04-01 02:17:00,46.7,39.5,31.31,NNW,337,0.0,0.0,76,0.00,,---,0.00,VWS V14.01,2013-04-01 09:17:00,
2013-04-01 02:22:00,46.5,39.4,31.31,NW,326,0.0,0.0,76,0.00,,---,0.00,VWS V14.01,2013-04-01 09:22:00,
2013-04-01 02:27:00,46.5,39.4,31.31,NW,325,0.0,0.0,76,0.00,,---,0.00,VWS V14.01,2013-04-01 09:27:00,
2013-04-01 02:32:00,46.4,38.9,31.30,NNW,337,0.0,0.0,75,0.00,,---,0.00,VWS V14.01,2013-04-01 09:32:00,
2013-04-01 02:37:00,46.4,38.9,31.30,NW,322,0.0,0.0,75,0.00,,---,0.00,VWS V14.01,2013-04-01 09:37:00,
2013-04-01 02:42:00,46.4,38.9,31.30,NNW,329,0.0,0.0,75,0.00,,---,0.00,VWS V14.01,2013-04-01 09:42:00,
2013-04-01 02:47:00,46.2,38.4,31.30,NW,322,0.0,0.0,74,0.00,,---,0.00,VWS V14.01,2013-04-01 09:47:00,
2013-04-01 02:52:00,46.1,38.3,31.30,NW,317,0.0,0.0,74,0.00,,---,0.00,VWS V14.01,2013-04-01 09:52:00,
2013-04-01 02:58:00,46.0,38.2,31.30,NNW,336,0.0,0.0,74,0.00,,---,0.00,VWS V14.01,2013-04-01 09:58:00,
2013-04-01 03:03:00,46.0,38.2,31.30,NW,320,0.0,0.0,74,0.00,,---,0.00,VWS V14.01,2013-04-01 10:03:00,
2013-04-01 03:08:00,46.1,37.9,31.30,NW,317,0.0,0.0,73,0.00,,---,0.00,VWS V14.01,2013-04-01 10:08:00,
2013-04-01 03:14:00,46.1,37.9,31.30,NW,321,0.0,0.0,73,0.00,,---,0.00,VWS V14.01,2013-04-01 10:14:00,
2013-04-01 03:19:00,46.2,37.7,31.30,NW,320,0.0,0.0,72,0.00,,---,0.00,VWS V14.01,2013-04-01 10:19:00,
2013-04-01 03:24:00,46.1,37.9,31.30,NW,323,0.0,0.0,73,0.00,,---,0.00,VWS V14.01,2013-04-01 10:24:00,
2013-04-01 03:29:00,46.0,37.8,31.30,NNW,343,0.0,0.0,73,0.00,,---,0.00,VWS V14.01,2013-04-01 10:29:00,
2013-04-01 03:34:00,45.8,38.0,31.30,NW,317,0.0,0.0,74,0.00,,---,0.00,VWS V14.01,2013-04-01 10:34:00,
2013-04-01 03:39:00,45.7,37.9,31.30,NW,319,0.0,0.0,74,0.00,,---,0.00,VWS V14.01,2013-04-01 10:39:00,
2013-04-01 03:44:00,45.4,37.6,31.30,NNW,331,0.0,0.0,74,0.00,,---,0.00,VWS V14.01,2013-04-01 10:44:00,
2013-04-01 03:49:00,45.5,37.7,31.30,NNW,327,0.0,0.0,74,0.00,,---,0.00,VWS V14.01,2013-04-01 10:49:00,
2013-04-01 03:54:00,45.8,37.3,31.30,NNW,339,0.0,0.0,72,0.00,,---,0.00,VWS V14.01,2013-04-01 10:54:00,
2013-04-01 03:59:00,45.8,37.3,31.30,NNW,336,0.0,0.0,72,0.00,,---,0.00,VWS V14.01,2013-04-01 10:59:00,
2013-04-01 04:04:00,45.8,37.0,31.30,NW,324,0.0,0.0,71,0.00,,---,0.00,VWS V14.01,2013-04-01 11:04:00,
2013-04-01 04:09:00,45.8,37.0,31.30,NW,313,0.0,0.0,71,0.00,,---,0.00,VWS V14.01,2013-04-01 11:09:00,
2013-04-01 04:14:00,46.0,37.1,31.30,NNW,330,0.0,0.0,71,0.00,,---,0.00,VWS V14.01,2013-04-01 11:14:00,
2013-04-01 04:19:00,45.8,37.0,31.30,NW,324,0.0,0.0,71,0.00,,---,0.00,VWS V14.01,2013-04-01 11:19:00,
2013-04-01 04:24:00,45.7,37.2,31.30,NW,323,0.0,0.0,72,0.00,,---,0.00,VWS V14.01,2013-04-01 11:24:00,
2013-04-01 04:29:00,45.5,37.0,31.30,NW,325,0.0,0.0,72,0.00,,---,0.00,VWS V14.01,2013-04-01 11:29:00,
2013-04-01 04:34:00,45.4,37.3,31.30,NNW,329,0.0,0.0,73,0.00,,---,0.00,VWS V14.01,2013-04-01 11:34:00,
2013-04-01 04:40:00,45.2,37.1,31.30,NW,321,0.0,0.0,73,0.00,,---,0.00,VWS V14.01,2013-04-01 11:40:00,
2013-04-01 04:45:00,45.2,37.1,31.30,NNW,339,0.0,0.0,73,0.00,,---,0.00,VWS V14.01,2013-04-01 11:45:00,
2013-04-01 04:50:00,45.2,37.1,31.30,NNW,330,0.0,0.0,73,0.00,,---,0.00,VWS V14.01,2013-04-01 11:50:00,
2013-04-01 04:55:00,45.1,37.0,31.30,NW,325,0.0,0.0,73,0.00,,---,0.00,VWS V14.01,2013-04-01 11:55:00,
2013-04-01 05:00:00,45.2,37.1,31.30,NNW,332,0.0,0.0,73,0.00,,---,0.00,VWS V14.01,2013-04-01 12:00:00,
2013-04-01 05:05:00,45.2,36.7,31.29,NNW,327,0.0,0.0,72,0.00,,---,0.00,VWS V14.01,2013-04-01 12:05:00,
2013-04-01 05:10:00,45.2,36.7,31.29,NW,321,0.0,0.0,72,0.00,,---,0.00,VWS V14.01,2013-04-01 12:10:00,
2013-04-01 05:15:00,44.9,36.4,31.29,NNW,333,0.0,0.0,72,0.00,,---,0.00,VWS V14.01,2013-04-01 12:15:00,
2013-04-01 05:20:00,44.6,36.2,31.29,NNW,329,0.0,0.0,72,0.00,,---,0.00,VWS V14.01,2013-04-01 12:20:00,
2013-04-01 05:26:00,44.5,36.4,31.29,NNW,327,0.0,0.0,73,0.00,,---,0.00,VWS V14.01,2013-04-01 12:26:00,
2013-04-01 05:31:00,44.5,36.4,31.29,NW,323,0.0,0.0,73,0.00,,---,0.00,VWS V14.01,2013-04-01 12:31:00,
2013-04-01 05:36:00,44.5,36.7,31.29,NW,325,0.0,0.0,74,0.00,,---,0.00,VWS V14.01,2013-04-01 12:36:00,
2013-04-01 05:42:00,44.5,36.7,31.29,NNW,340,0.0,0.0,74,0.00,,---,0.00,VWS V14.01,2013-04-01 12:42:00,
2013-04-01 05:47:00,44.5,36.7,31.29,NW,321,0.0,0.0,74,0.00,,---,0.00,VWS V14.01,2013-04-01 12:47:00,
2013-04-01 05:52:00,44.6,36.8,31.29,NNW,340,0.0,0.0,74,0.00,,---,0.00,VWS V14.01,2013-04-01 12:52:00,
2013-04-01 05:57:00,44.5,36.7,31.29,NNW,335,0.0,0.0,74,0.00,,---,0.00,VWS V14.01,2013-04-01 12:57:00,
2013-04-01 06:02:00,43.9,36.2,31.29,NNW,338,0.0,0.0,74,0.00,,---,0.00,VWS V14.01,2013-04-01 13:02:00,
2013-04-01 06:07:00,43.5,36.1,31.28,NNW,338,0.0,0.0,75,0.00,,---,0.00,VWS V14.01,2013-04-01 13:07:00,
2013-04-01 06:12:00,43.6,36.2,31.28,North,360,0.0,0.0,75,0.00,,---,0.00,VWS V14.01,2013-04-01 13:12:00,
2013-04-01 06:18:00,43.8,36.4,31.28,NNW,336,0.0,0.0,75,0.00,,---,0.00,VWS V14.01,2013-04-01 13:18:00,
2013-04-01 06:23:00,43.6,36.2,31.28,North,355,0.0,0.0,75,0.00,,---,0.00,VWS V14.01,2013-04-01 13:23:00,
2013-04-01 06:28:00,43.9,36.2,31.28,North,355,0.0,0.0,74,0.00,,---,0.00,VWS V14.01,2013-04-01 13:28:00,
2013-04-01 06:33:00,44.1,36.4,31.28,NNW,340,0.0,0.0,74,0.00,,---,0.00,VWS V14.01,2013-04-01 13:33:00,
2013-04-01 06:38:00,44.2,36.1,31.28,North,355,0.0,0.0,73,0.00,,---,0.00,VWS V14.01,2013-04-01 13:38:00,
2013-04-01 06:43:00,43.6,35.9,31.28,NNW,344,0.0,0.0,74,0.00,,---,0.00,VWS V14.01,2013-04-01 13:43:00,
2013-04-01 06:48:00,43.3,35.9,31.27,NNW,341,0.0,0.0,75,0.00,,---,0.00,VWS V14.01,2013-04-01 13:48:00,
2013-04-01 06:54:00,43.1,36.1,31.27,NNW,333,0.0,0.0,76,0.00,,---,0.00,VWS V14.01,2013-04-01 13:54:00,
2013-04-01 06:59:00,42.8,36.1,31.27,NNW,343,0.0,0.0,77,0.00,,---,0.00,VWS V14.01,2013-04-01 13:59:00,
2013-04-01 07:04:00,42.3,35.6,31.27,NNW,329,0.0,0.0,77,0.00,,---,0.00,VWS V14.01,2013-04-01 14:04:00,
2013-04-01 07:09:00,41.9,35.9,31.26,North,351,0.0,0.0,79,0.00,,---,0.00,VWS V14.01,2013-04-01 14:09:00,
2013-04-01 07:14:00,41.5,35.8,31.26,NNW,341,0.0,0.0,80,0.00,,---,0.00,VWS V14.01,2013-04-01 14:14:00,
2013-04-01 07:19:00,41.6,35.6,31.26,NNW,330,0.0,0.0,79,0.00,,---,0.00,VWS V14.01,2013-04-01 14:19:00,
2013-04-01 07:24:00,41.9,35.2,31.25,NNW,329,0.0,0.0,77,0.00,,---,0.00,VWS V14.01,2013-04-01 14:24:00,
2013-04-01 07:30:00,42.5,35.2,31.25,NW,325,0.0,0.0,75,0.00,,---,0.00,VWS V14.01,2013-04-01 14:30:00,
2013-04-01 07:35:00,42.6,34.9,31.25,NNW,329,0.0,0.0,74,0.00,,---,0.00,VWS V14.01,2013-04-01 14:35:00,
2013-04-01 07:40:00,42.8,35.1,31.25,NW,316,0.0,0.0,74,0.00,,---,0.00,VWS V14.01,2013-04-01 14:40:00,
2013-04-01 07:45:00,42.6,34.9,31.25,NW,317,0.0,0.0,74,0.00,,---,0.00,VWS V14.01,2013-04-01 14:45:00,
2013-04-01 07:50:00,42.8,34.8,31.25,NW,311,0.0,0.0,73,0.00,,---,0.00,VWS V14.01,2013-04-01 14:50:00,
2013-04-01 07:55:00,42.9,34.8,31.25,NW,323,0.0,0.0,73,0.00,,---,0.00,VWS V14.01,2013-04-01 14:55:00,
2013-04-01 08:00:00,43.2,34.8,31.25,NW,323,0.0,0.0,72,0.00,,---,0.00,VWS V14.01,2013-04-01 15:00:00,
2013-04-01 08:05:00,43.5,34.7,31.24,NW,316,0.0,0.0,71,0.00,,---,0.00,VWS V14.01,2013-04-01 15:05:00,
2013-04-01 08:10:00,43.9,35.5,31.24,NW,325,0.0,0.0,72,0.00,,---,0.00,VWS V14.01,2013-04-01 15:10:00,
2013-04-01 08:16:00,44.1,35.3,31.24,NNW,333,0.0,0.0,71,0.00,,---,0.00,VWS V14.01,2013-04-01 15:16:00,
2013-04-01 08:21:00,44.1,35.3,31.24,NNW,338,0.0,0.0,71,0.00,,---,0.00,VWS V14.01,2013-04-01 15:21:00,
2013-04-01 08:26:00,44.3,35.9,31.24,NNW,338,0.0,0.0,72,0.00,,---,0.00,VWS V14.01,2013-04-01 15:26:00,
2013-04-01 08:31:00,44.5,35.7,31.26,NNW,338,0.0,0.0,71,0.00,,---,0.00,VWS V14.01,2013-04-01 15:31:00,
2013-04-01 08:36:00,44.6,35.8,31.26,NNW,338,0.0,0.0,71,0.00,,---,0.00,VWS V14.01,2013-04-01 15:36:00,
2013-04-01 08:42:00,44.9,36.8,31.26,NNW,338,0.0,0.0,73,0.00,,---,0.00,VWS V14.01,2013-04-01 15:42:00,
2013-04-01 08:47:00,45.1,37.0,31.26,NNW,337,0.0,0.0,73,0.00,,---,0.00,VWS V14.01,2013-04-01 15:47:00,
2013-04-01 08:52:00,45.7,37.2,31.26,NW,323,0.0,0.0,72,0.00,,---,0.00,VWS V14.01,2013-04-01 15:52:00,
2013-04-01 08:57:00,46.0,36.8,31.26,NW,317,0.0,0.0,70,0.00,,---,0.00,VWS V14.01,2013-04-01 15:57:00,
2013-04-01 09:02:00,46.4,37.2,31.26,NW,325,0.0,0.0,70,0.00,,---,0.00,VWS V14.01,2013-04-01 16:02:00,
2013-04-01 09:07:00,46.7,37.8,31.26,NW,326,0.0,0.0,71,0.00,,---,0.00,VWS V14.01,2013-04-01 16:07:00,
2013-04-01 09:12:00,46.7,38.2,31.26,NNW,330,0.0,0.0,72,0.00,,---,0.00,VWS V14.01,2013-04-01 16:12:00,
2013-04-01 09:17:00,47.0,38.1,31.26,NNE,18,0.0,0.0,71,0.00,,---,0.00,VWS V14.01,2013-04-01 16:17:00,
2013-04-01 09:22:00,47.3,37.7,31.26,NNE,13,0.0,0.0,69,0.00,,---,0.00,VWS V14.01,2013-04-01 16:22:00,
2013-04-01 09:28:00,47.4,38.1,31.26,North,5,0.0,0.0,70,0.00,,---,0.00,VWS V14.01,2013-04-01 16:28:00,
2013-04-01 09:33:00,48.5,38.8,31.26,WNW,302,0.0,0.0,69,0.00,,---,0.00,VWS V14.01,2013-04-01 16:33:00,
2013-04-01 09:38:00,49.2,38.3,31.27,NW,321,0.0,0.0,66,0.00,,---,0.00,VWS V14.01,2013-04-01 16:38:00,
2013-04-01 09:43:00,48.5,38.4,31.27,North,5,0.0,0.0,68,0.00,,---,0.00,VWS V14.01,2013-04-01 16:43:00,
2013-04-01 09:48:00,48.5,38.4,31.26,NNW,334,0.0,0.0,68,0.00,,---,0.00,VWS V14.01,2013-04-01 16:48:00,
2013-04-01 09:54:00,49.8,39.3,31.27,NNW,329,0.0,0.0,67,0.00,,---,0.00,VWS V14.01,2013-04-01 16:54:00,
2013-04-01 09:59:00,49.4,38.1,31.27,North,350,0.0,0.0,65,0.00,,---,0.00,VWS V14.01,2013-04-01 16:59:00,
2013-04-01 10:04:00,49.5,39.0,31.27,NW,323,0.0,0.0,67,0.00,,---,0.00,VWS V14.01,2013-04-01 17:04:00,
2013-04-01 10:09:00,49.6,39.1,31.27,North,355,0.0,0.0,67,0.00,,---,0.00,VWS V14.01,2013-04-01 17:09:00,
2013-04-01 10:14:00,49.4,38.9,31.27,NNW,344,0.0,0.0,67,0.00,,---,0.00,VWS V14.01,2013-04-01 17:14:00,
2013-04-01 10:19:00,49.9,39.0,31.27,NNW,337,0.0,0.0,66,0.00,,---,0.00,VWS V14.01,2013-04-01 17:19:00,
2013-04-01 10:24:00,50.4,39.5,31.27,NE,36,0.0,0.0,66,0.00,,---,0.00,VWS V14.01,2013-04-01 17:24:00,
2013-04-01 10:29:00,50.5,39.2,31.28,NNW,331,0.0,0.0,65,0.00,,---,0.00,VWS V14.01,2013-04-01 17:29:00,
2013-04-01 10:34:00,51.0,39.7,31.28,North,360,0.0,0.0,65,0.00,,---,0.00,VWS V14.01,2013-04-01 17:34:00,
2013-04-01 10:39:00,50.5,38.8,31.28,North,5,0.0,0.0,64,0.00,,---,0.00,VWS V14.01,2013-04-01 17:39:00,
2013-04-01 10:44:00,51.9,39.3,31.28,NNW,340,0.0,0.0,62,0.00,,---,0.00,VWS V14.01,2013-04-01 17:44:00,
2013-04-01 10:49:00,52.3,38.4,31.28,NNW,344,0.0,0.0,59,0.00,,---,0.00,VWS V14.01,2013-04-01 17:49:00,
2013-04-01 10:54:00,52.3,39.3,31.28,North,350,0.0,0.0,61,0.00,,---,0.00,VWS V14.01,2013-04-01 17:54:00,
2013-04-01 10:59:00,52.2,39.6,31.28,NNW,342,0.0,0.0,62,0.00,,---,0.00,VWS V14.01,2013-04-01 17:59:00,
2013-04-01 11:05:00,52.3,40.1,31.28,North,360,0.0,0.0,63,0.00,,---,0.00,VWS V14.01,2013-04-01 18:05:00,
2013-04-01 11:10:00,52.8,39.3,31.28,North,360,0.0,0.0,60,0.00,,---,0.00,VWS V14.01,2013-04-01 18:10:00,
2013-04-01 11:15:00,52.3,39.7,31.28,North,355,0.0,0.0,62,0.00,,---,0.00,VWS V14.01,2013-04-01 18:15:00,
2013-04-01 11:20:00,52.6,39.5,31.28,NNW,345,0.0,0.0,61,0.00,,---,0.00,VWS V14.01,2013-04-01 18:20:00,
2013-04-01 11:25:00,52.3,39.7,31.28,NNE,19,0.0,0.0,62,0.00,,---,0.00,VWS V14.01,2013-04-01 18:25:00,
2013-04-01 11:30:00,52.3,39.7,31.28,NNE,17,0.0,0.0,62,0.00,,---,0.00,VWS V14.01,2013-04-01 18:30:00,
2013-04-01 11:35:00,54.2,41.1,31.29,NNE,19,0.0,0.0,61,0.00,,---,0.00,VWS V14.01,2013-04-01 18:35:00,
2013-04-01 11:40:00,53.9,39.9,31.29,North,360,0.0,0.0,59,0.00,,---,0.00,VWS V14.01,2013-04-01 18:40:00,
2013-04-01 11:45:00,52.8,38.0,31.28,North,360,0.0,0.0,57,0.00,,---,0.00,VWS V14.01,2013-04-01 18:45:00,
2013-04-01 11:51:00,53.5,40.0,31.28,North,5,0.0,0.0,60,0.00,,---,0.00,VWS V14.01,2013-04-01 18:51:00,
2013-04-01 11:56:00,54.7,39.8,31.29,North,11,0.0,0.0,57,0.00,,---,0.00,VWS V14.01,2013-04-01 18:56:00,
2013-04-01 12:01:00,54.5,39.1,31.29,NNW,346,0.0,0.0,56,0.00,,---,0.00,VWS V14.01,2013-04-01 19:01:00,
2013-04-01 12:06:00,53.5,38.2,31.28,NNW,335,0.0,0.0,56,0.00,,---,0.00,VWS V14.01,2013-04-01 19:06:00,
2013-04-01 12:11:00,53.2,38.8,31.28,NW,317,0.0,0.0,58,0.00,,---,0.00,VWS V14.01,2013-04-01 19:11:00,
2013-04-01 12:17:00,53.1,38.7,31.28,NNE,13,0.0,0.0,58,0.00,,---,0.00,VWS V14.01,2013-04-01 19:17:00,
2013-04-01 12:22:00,52.9,38.5,31.28,North,9,0.0,0.0,58,0.00,,---,0.00,VWS V14.01,2013-04-01 19:22:00,
2013-04-01 12:27:00,53.6,39.2,31.28,NNE,24,0.0,0.0,58,0.00,,---,0.00,VWS V14.01,2013-04-01 19:27:00,
2013-04-01 12:32:00,54.4,39.0,31.28,NNW,334,0.0,0.0,56,0.00,,---,0.00,VWS V14.01,2013-04-01 19:32:00,
2013-04-01 12:37:00,53.6,38.8,31.28,North,349,0.0,0.0,57,0.00,,---,0.00,VWS V14.01,2013-04-01 19:37:00,
2013-04-01 12:42:00,53.6,38.3,31.28,NNW,329,0.0,0.0,56,0.00,,---,0.00,VWS V14.01,2013-04-01 19:42:00,
2013-04-01 12:47:00,54.5,39.6,31.29,NNW,330,0.0,0.0,57,0.00,,---,0.00,VWS V14.01,2013-04-01 19:47:00,
2013-04-01 12:53:00,54.8,39.4,31.29,NNW,338,0.0,0.0,56,0.00,,---,0.00,VWS V14.01,2013-04-01 19:53:00,
2013-04-01 12:58:00,55.4,39.0,31.29,NW,326,0.0,0.0,54,0.00,,---,0.00,VWS V14.01,2013-04-01 19:58:00,
2013-04-01 13:03:00,55.6,38.8,29.95,North,360,0.0,0.0,53,0.00,,---,0.00,VWS V14.01,2013-04-01 20:03:00,
2013-04-01 13:08:00,54.4,38.6,31.29,NNE,14,0.0,0.0,55,0.00,,---,0.00,VWS V14.01,2013-04-01 20:08:00,
2013-04-01 13:13:00,54.1,37.8,31.28,NNW,344,0.0,0.0,54,0.00,,---,0.00,VWS V14.01,2013-04-01 20:13:00,
2013-04-01 13:18:00,54.2,37.5,31.28,North,355,0.0,0.0,53,0.00,,---,0.00,VWS V14.01,2013-04-01 20:18:00,
2013-04-01 13:23:00,54.7,38.9,31.28,NW,310,0.0,0.0,55,0.00,,---,0.00,VWS V14.01,2013-04-01 20:23:00,
2013-04-01 13:28:00,55.1,37.8,31.29,NNW,335,0.0,0.0,52,0.00,,---,0.00,VWS V14.01,2013-04-01 20:28:00,
2013-04-01 13:34:00,57.0,39.6,31.29,North,360,0.0,0.0,52,0.00,,---,0.00,VWS V14.01,2013-04-01 20:34:00,
2013-04-01 13:39:00,56.6,38.2,31.29,NNE,17,0.0,0.0,50,0.00,,---,0.00,VWS V14.01,2013-04-01 20:39:00,
2013-04-01 13:44:00,56.0,38.2,31.29,NNW,336,0.0,0.0,51,0.00,,---,0.00,VWS V14.01,2013-04-01 20:44:00,
2013-04-01 13:49:00,56.5,39.6,31.29,NW,317,0.0,0.0,53,0.00,,---,0.00,VWS V14.01,2013-04-01 20:49:00,
2013-04-01 13:54:00,57.2,38.2,31.29,North,355,0.0,0.0,49,0.00,,---,0.00,VWS V14.01,2013-04-01 20:54:00,
2013-04-01 13:59:00,56.3,37.9,18.42,NNW,345,0.0,0.0,50,0.00,,---,0.00,VWS V14.01,2013-04-01 20:59:00,
2013-04-01 14:04:00,55.7,38.4,18.42,NNW,331,0.0,0.0,52,0.00,,---,0.00,VWS V14.01,2013-04-01 21:04:00,
2013-04-01 14:09:00,56.2,38.8,18.42,NNW,331,0.0,0.0,52,0.00,,---,0.00,VWS V14.01,2013-04-01 21:09:00,
2013-04-01 14:14:00,55.9,38.5,31.83,NNW,341,0.0,0.0,52,0.00,,---,0.00,VWS V14.01,2013-04-01 21:14:00,
2013-04-01 14:19:00,55.3,38.5,31.83,NW,326,0.0,0.0,53,0.00,,---,0.00,VWS V14.01,2013-04-01 21:19:00,
2013-04-01 14:24:00,55.7,38.4,32.16,NNW,344,0.0,0.0,52,0.00,,---,0.00,VWS V14.01,2013-04-01 21:24:00,
2013-04-01 14:29:00,56.6,38.7,32.16,NW,309,0.0,0.0,51,0.00,,---,0.00,VWS V14.01,2013-04-01 21:29:00,
2013-04-01 14:34:00,57.6,37.5,32.16,NW,309,0.0,0.0,47,0.00,,---,0.00,VWS V14.01,2013-04-01 21:34:00,
2013-04-01 14:39:00,57.6,38.6,28.47,North,5,0.0,0.0,49,0.00,,---,0.00,VWS V14.01,2013-04-01 21:39:00,
2013-04-01 14:44:00,56.5,38.1,28.47,NNW,348,0.0,0.0,50,0.00,,---,0.00,VWS V14.01,2013-04-01 21:44:00,
2013-04-01 14:50:00,55.6,37.3,28.47,NNE,12,0.0,0.0,50,0.00,,---,0.00,VWS V14.01,2013-04-01 21:50:00,
2013-04-01 14:55:00,55.1,37.3,28.48,North,351,0.0,0.0,51,0.00,,---,0.00,VWS V14.01,2013-04-01 21:55:00,
2013-04-01 15:00:00,55.0,37.7,28.48,NNE,32,0.0,0.0,52,0.00,,---,0.00,VWS V14.01,2013-04-01 22:00:00,
2013-04-01 15:05:00,56.2,37.8,28.47,North,351,0.0,0.0,50,0.00,,---,0.00,VWS V14.01,2013-04-01 22:05:00,
2013-04-01 15:10:00,56.2,38.8,28.47,NNW,342,0.0,0.0,52,0.00,,---,0.00,VWS V14.01,2013-04-01 22:10:00,
2013-04-01 15:15:00,57.0,37.5,28.47,North,351,0.0,0.0,48,0.00,,---,0.00,VWS V14.01,2013-04-01 22:15:00,
2013-04-01 15:20:00,56.6,38.2,28.47,NW,309,0.0,0.0,50,0.00,,---,0.00,VWS V14.01,2013-04-01 22:20:00,
2013-04-01 15:25:00,56.6,37.2,28.47,North,350,0.0,0.0,48,0.00,,---,0.00,VWS V14.01,2013-04-01 22:25:00,
2013-04-01 15:31:00,56.9,37.4,28.47,North,5,0.0,0.0,48,0.00,,---,0.00,VWS V14.01,2013-04-01 22:31:00,
2013-04-01 15:36:00,56.7,38.3,28.47,NNE,27,0.0,0.0,50,0.00,,---,0.00,VWS V14.01,2013-04-01 22:36:00,
2013-04-01 15:41:00,56.5,37.6,28.47,NNE,15,0.0,0.0,49,0.00,,---,0.00,VWS V14.01,2013-04-01 22:41:00,
2013-04-01 15:46:00,56.6,37.7,28.47,NNE,31,0.0,0.0,49,0.00,,---,0.00,VWS V14.01,2013-04-01 22:46:00,
2013-04-01 15:52:00,56.7,36.7,28.47,NNE,16,0.0,0.0,47,0.00,,---,0.00,VWS V14.01,2013-04-01 22:52:00,
2013-04-01 15:57:00,56.3,36.9,28.47,NNW,346,0.0,0.0,48,0.00,,---,0.00,VWS V14.01,2013-04-01 22:57:00,
2013-04-01 16:02:00,56.9,37.4,28.47,North,355,0.0,0.0,48,0.00,,---,0.00,VWS V14.01,2013-04-01 23:02:00,
2013-04-01 16:07:00,56.9,36.9,31.83,NNE,19,0.0,0.0,47,0.00,,---,0.00,VWS V14.01,2013-04-01 23:07:00,
2013-04-01 16:12:00,56.5,37.6,31.83,NNE,19,0.0,0.0,49,0.00,,---,0.00,VWS V14.01,2013-04-01 23:12:00,
2013-04-01 16:17:00,56.2,37.8,31.83,North,9,0.0,0.0,50,0.00,,---,0.00,VWS V14.01,2013-04-01 23:17:00,
2013-04-01 16:22:00,56.0,37.1,31.83,NNE,17,0.0,0.0,49,0.00,,---,0.00,VWS V14.01,2013-04-01 23:22:00,
2013-04-01 16:28:00,56.0,37.6,31.83,North,360,0.0,0.0,50,0.00,,---,0.00,VWS V14.01,2013-04-01 23:28:00,
2013-04-01 16:33:00,55.7,37.4,28.59,NNW,337,0.0,0.0,50,0.00,,---,0.00,VWS V14.01,2013-04-01 23:33:00,
2013-04-01 16:38:00,55.7,37.4,28.59,North,5,0.0,0.0,50,0.00,,---,0.00,VWS V14.01,2013-04-01 23:38:00,
2013-04-01 16:43:00,55.6,37.8,28.59,NNW,339,0.0,0.0,51,0.00,,---,0.00,VWS V14.01,2013-04-01 23:43:00,
2013-04-01 16:48:00,55.9,38.0,28.59,North,360,0.0,0.0,51,0.00,,---,0.00,VWS V14.01,2013-04-01 23:48:00,
2013-04-01 16:53:00,55.4,37.6,28.59,NNW,348,0.0,0.0,51,0.00,,---,0.00,VWS V14.01,2013-04-01 23:53:00,
2013-04-01 16:58:00,55.1,37.8,31.17,NNW,334,0.0,0.0,52,0.00,,---,0.00,VWS V14.01,2013-04-01 23:58:00,
2013-04-01 17:04:00,55.1,37.3,31.17,North,5,0.0,0.0,51,0.00,,---,0.00,VWS V14.01,2013-04-02 00:04:00,
2013-04-01 17:09:00,55.0,37.7,31.17,NW,323,0.0,0.0,52,0.00,,---,0.00,VWS V14.01,2013-04-02 00:09:00,
2013-04-01 17:14:00,54.8,37.5,31.17,NNW,336,0.0,0.0,52,0.00,,---,0.00,VWS V14.01,2013-04-02 00:14:00,
2013-04-01 17:19:00,54.5,37.2,31.17,NNW,338,0.0,0.0,52,0.00,,---,0.00,VWS V14.01,2013-04-02 00:19:00,
2013-04-01 17:24:00,54.2,37.5,31.17,North,355,0.0,0.0,53,0.00,,---,0.00,VWS V14.01,2013-04-02 00:24:00,
2013-04-01 17:29:00,54.1,37.4,31.17,North,355,0.0,0.0,53,0.00,,---,0.00,VWS V14.01,2013-04-02 00:29:00,
2013-04-01 17:34:00,53.9,37.2,31.17,North,355,0.0,0.0,53,0.00,,---,0.00,VWS V14.01,2013-04-02 00:34:00,
2013-04-01 17:39:00,53.8,37.6,28.58,North,350,0.0,0.0,54,0.00,,---,0.00,VWS V14.01,2013-04-02 00:39:00,
2013-04-01 17:44:00,53.6,37.8,28.58,NNW,333,0.0,0.0,55,0.00,,---,0.00,VWS V14.01,2013-04-02 00:44:00,
2013-04-01 17:49:00,53.6,37.4,28.58,North,5,0.0,0.0,54,0.00,,---,0.00,VWS V14.01,2013-04-02 00:49:00,
2013-04-01 17:54:00,53.3,37.6,28.58,North,355,0.0,0.0,55,0.00,,---,0.00,VWS V14.01,2013-04-02 00:54:00,
2013-04-01 17:59:00,53.2,37.5,31.26,NNW,340,0.0,0.0,55,0.00,,---,0.00,VWS V14.01,2013-04-02 00:59:00,
2013-04-01 18:04:00,53.1,36.4,31.26,NNW,347,0.0,0.0,53,0.00,,---,0.00,VWS V14.01,2013-04-02 01:04:00,
2013-04-01 18:09:00,52.9,36.7,31.26,NNW,329,0.0,0.0,54,0.00,,---,0.00,VWS V14.01,2013-04-02 01:09:00,
2013-04-01 18:14:00,52.6,36.5,28.51,NNW,339,0.0,0.0,54,0.00,,---,0.00,VWS V14.01,2013-04-02 01:14:00,
2013-04-01 18:19:00,52.3,36.6,28.51,WNW,302,0.0,0.0,55,0.00,,---,0.00,VWS V14.01,2013-04-02 01:19:00,
2013-04-01 18:24:00,52.0,36.3,28.51,NNW,340,0.0,0.0,55,0.00,,---,0.00,VWS V14.01,2013-04-02 01:24:00,
2013-04-01 18:29:00,52.0,36.3,28.51,North,355,0.0,0.0,55,0.00,,---,0.00,VWS V14.01,2013-04-02 01:29:00,
2013-04-01 18:34:00,51.9,35.8,28.51,NW,315,0.0,0.0,54,0.00,,---,0.00,VWS V14.01,2013-04-02 01:34:00,
2013-04-01 18:40:00,51.6,36.0,28.51,NNW,333,0.0,0.0,55,0.00,,---,0.00,VWS V14.01,2013-04-02 01:40:00,
2013-04-01 18:45:00,51.4,36.2,28.51,North,355,0.0,0.0,56,0.00,,---,0.00,VWS V14.01,2013-04-02 01:45:00,
2013-04-01 18:50:00,51.3,36.6,28.51,NNW,343,0.0,0.0,57,0.00,,---,0.00,VWS V14.01,2013-04-02 01:50:00,
2013-04-01 18:55:00,50.8,36.6,28.51,North,11,0.0,0.0,58,0.00,,---,0.00,VWS V14.01,2013-04-02 01:55:00,
2013-04-01 19:00:00,50.5,36.7,28.51,NNW,336,0.0,0.0,59,0.00,,---,0.00,VWS V14.01,2013-04-02 02:00:00,
2013-04-01 19:05:00,50.2,36.9,29.90,NW,311,0.0,0.0,60,0.00,,---,0.00,VWS V14.01,2013-04-02 02:05:00,
2013-04-01 19:10:00,49.9,36.6,31.25,NNW,333,0.0,0.0,60,0.00,,---,0.00,VWS V14.01,2013-04-02 02:10:00,
2013-04-01 19:16:00,49.5,37.0,31.25,NNW,343,0.0,0.0,62,0.00,,---,0.00,VWS V14.01,2013-04-02 02:16:00,
2013-04-01 19:21:00,49.1,37.1,31.24,NNW,340,0.0,0.0,63,0.00,,---,0.00,VWS V14.01,2013-04-02 02:21:00,
2013-04-01 19:26:00,48.9,36.9,29.56,NNW,333,0.0,0.0,63,0.00,,---,0.00,VWS V14.01,2013-04-02 02:26:00,
2013-04-01 19:31:00,48.5,37.3,29.56,North,355,0.0,0.0,65,0.00,,---,0.00,VWS V14.01,2013-04-02 02:31:00,
2013-04-01 19:37:00,48.0,37.2,31.87,NNW,329,0.0,0.0,66,0.00,,---,0.00,VWS V14.01,2013-04-02 02:37:00,
2013-04-01 19:42:00,47.7,37.3,27.88,NW,325,0.0,0.0,67,0.00,,---,0.00,VWS V14.01,2013-04-02 02:42:00,
2013-04-01 19:47:00,47.6,37.2,27.88,WNW,300,0.0,0.0,67,0.00,,---,0.00,VWS V14.01,2013-04-02 02:47:00,
2013-04-01 19:52:00,47.4,37.4,27.87,NW,314,0.0,0.0,68,0.00,,---,0.00,VWS V14.01,2013-04-02 02:52:00,
2013-04-01 19:57:00,47.3,37.3,27.87,NW,319,0.0,0.0,68,0.00,,---,0.00,VWS V14.01,2013-04-02 02:57:00,
2013-04-01 20:02:00,47.1,37.1,31.23,NW,309,0.0,0.0,68,0.00,,---,0.00,VWS V14.01,2013-04-02 03:02:00,
2013-04-01 20:07:00,47.0,37.0,31.25,NNW,331,0.0,0.0,68,0.00,,---,0.00,VWS V14.01,2013-04-02 03:07:00,
2013-04-01 20:12:00,46.7,36.7,31.25,NW,304,0.0,0.0,68,0.00,,---,0.00,VWS V14.01,2013-04-02 03:12:00,
2013-04-01 20:17:00,46.7,37.1,31.25,WNW,298,0.0,0.0,69,0.00,,---,0.00,VWS V14.01,2013-04-02 03:17:00,
2013-04-01 20:22:00,46.5,36.9,31.25,WNW,286,0.0,0.0,69,0.00,,---,0.00,VWS V14.01,2013-04-02 03:22:00,
2013-04-01 20:27:00,46.5,36.9,31.25,WNW,294,0.0,0.0,69,0.00,,---,0.00,VWS V14.01,2013-04-02 03:27:00,
2013-04-01 20:33:00,46.5,36.9,31.25,West,279,0.0,0.0,69,0.00,,---,0.00,VWS V14.01,2013-04-02 03:33:00,
2013-04-01 20:38:00,46.5,36.9,31.25,WNW,284,0.0,0.0,69,0.00,,---,0.00,VWS V14.01,2013-04-02 03:38:00,
2013-04-01 20:43:00,46.4,36.8,31.24,West,275,0.0,0.0,69,0.00,,---,0.00,VWS V14.01,2013-04-02 03:43:00,
2013-04-01 20:48:00,46.4,36.8,31.24,WNW,287,0.0,0.0,69,0.00,,---,0.00,VWS V14.01,2013-04-02 03:48:00,
2013-04-01 20:53:00,46.5,36.5,31.25,West,281,0.0,0.0,68,0.00,,---,0.00,VWS V14.01,2013-04-02 03:53:00,
2013-04-01 20:58:00,46.4,36.4,31.24,West,281,0.0,0.0,68,0.00,,---,0.00,VWS V14.01,2013-04-02 03:58:00,
2013-04-01 21:00:00,46.4,36.4,31.24,West,271,0.0,0.0,68,0.00,,---,0.00,VWS V14.01,2013-04-02 04:00:00,
2013-04-01 21:01:00,46.4,36.4,31.24,West,272,0.0,0.0,68,0.00,,---,0.00,VWS V14.01,2013-04-02 04:01:00,
2013-04-01 21:06:00,46.4,36.8,31.26,West,275,0.0,0.0,69,0.00,,---,0.00,VWS V14.01,2013-04-02 04:06:00,
2013-04-01 21:11:00,46.2,36.6,31.26,WNW,300,0.0,0.0,69,0.00,,---,0.00,VWS V14.01,2013-04-02 04:11:00,
2013-04-01 21:17:00,46.0,36.4,31.26,West,279,0.0,0.0,69,0.00,,---,0.00,VWS V14.01,2013-04-02 04:17:00,
2013-04-01 21:22:00,45.8,36.2,31.26,West,277,0.0,0.0,69,0.00,,---,0.00,VWS V14.01,2013-04-02 04:22:00,
2013-04-01 21:27:00,45.7,36.5,31.26,West,277,0.0,0.0,70,0.00,,---,0.00,VWS V14.01,2013-04-02 04:27:00,
2013-04-01 21:32:00,45.4,36.2,31.25,West,277,0.0,0.0,70,0.00,,---,0.00,VWS V14.01,2013-04-02 04:32:00,
2013-04-01 21:37:00,45.4,35.8,31.25,West,260,0.0,0.0,69,0.00,,---,0.00,VWS V14.01,2013-04-02 04:37:00,
2013-04-01 21:43:00,45.4,35.8,31.26,WSW,253,0.0,0.0,69,0.00,,---,0.00,VWS V14.01,2013-04-02 04:43:00,
2013-04-01 21:48:00,45.2,36.0,31.25,SSW,196,0.0,0.0,70,0.00,,---,0.00,VWS V14.01,2013-04-02 04:48:00,
2013-04-01 21:53:00,44.8,36.3,31.25,SSW,194,0.0,0.0,72,0.00,,---,0.00,VWS V14.01,2013-04-02 04:53:00,
2013-04-01 21:58:00,44.6,36.5,31.25,SSW,197,0.0,0.0,73,0.00,,---,0.00,VWS V14.01,2013-04-02 04:58:00,
2013-04-01 22:03:00,44.8,37.0,31.25,SSW,205,0.0,0.0,74,0.00,,---,0.00,VWS V14.01,2013-04-02 05:03:00,
2013-04-01 22:08:00,44.6,36.8,31.26,SW,216,0.0,0.0,74,0.00,,---,0.00,VWS V14.01,2013-04-02 05:08:00,
2013-04-01 22:13:00,44.5,37.1,31.26,SSW,213,0.0,0.0,75,0.00,,---,0.00,VWS V14.01,2013-04-02 05:13:00,
2013-04-01 22:18:00,44.3,36.9,31.26,SSW,207,0.0,0.0,75,0.00,,---,0.00,VWS V14.01,2013-04-02 05:18:00,
2013-04-01 22:24:00,44.1,37.0,31.26,SSW,213,0.0,0.0,76,0.00,,---,0.00,VWS V14.01,2013-04-02 05:24:00,
2013-04-01 22:29:00,43.9,37.2,31.26,SSW,200,0.0,0.0,77,0.00,,---,0.00,VWS V14.01,2013-04-02 05:29:00,
2013-04-01 22:34:00,43.8,37.1,31.26,SW,230,0.0,0.0,77,0.00,,---,0.00,VWS V14.01,2013-04-02 05:34:00,
2013-04-01 22:39:00,43.6,36.9,31.26,SSW,206,0.0,0.0,77,0.00,,---,0.00,VWS V14.01,2013-04-02 05:39:00,
2013-04-01 22:44:00,43.5,36.8,31.26,SW,219,0.0,0.0,77,0.00,,---,0.00,VWS V14.01,2013-04-02 05:44:00,
2013-04-01 22:49:00,43.3,36.9,31.25,SSW,205,0.0,0.0,78,0.00,,---,0.00,VWS V14.01,2013-04-02 05:49:00,
2013-04-01 22:54:00,43.2,36.8,31.25,SSW,209,0.0,0.0,78,0.00,,---,0.00,VWS V14.01,2013-04-02 05:54:00,
2013-04-01 22:59:00,43.2,36.8,31.25,SSW,201,0.0,0.0,78,0.00,,---,0.00,VWS V14.01,2013-04-02 05:59:00,
2013-04-01 23:04:00,42.9,36.5,31.25,SSW,200,0.0,0.0,78,0.00,,---,0.00,VWS V14.01,2013-04-02 06:04:00,
2013-04-01 23:09:00,42.8,36.8,31.26,South,185,0.0,0.0,79,0.00,,---,0.00,VWS V14.01,2013-04-02 06:09:00,
2013-04-01 23:14:00,42.6,36.5,31.26,SW,219,0.0,0.0,79,0.00,,---,0.00,VWS V14.01,2013-04-02 06:14:00,
2013-04-01 23:19:00,42.5,36.5,31.26,SSW,198,0.0,0.0,79,0.00,,---,0.00,VWS V14.01,2013-04-02 06:19:00,
2013-04-01 23:24:00,42.3,36.3,31.26,SSW,202,0.0,0.0,79,0.00,,---,0.00,VWS V14.01,2013-04-02 06:24:00,
2013-04-01 23:29:00,42.2,36.2,31.26,SW,223,0.0,0.0,79,0.00,,---,0.00,VWS V14.01,2013-04-02 06:29:00,
2013-04-01 23:34:00,42.1,36.1,31.26,SSW,208,0.0,0.0,79,0.00,,---,0.00,VWS V14.01,2013-04-02 06:34:00,
2013-04-01 23:39:00,42.1,36.1,31.26,SSW,204,0.0,0.0,79,0.00,,---,0.00,VWS V14.01,2013-04-02 06:39:00,
2013-04-01 23:44:00,41.9,35.9,31.26,SSW,209,0.0,0.0,79,0.00,,---,0.00,VWS V14.01,2013-04-02 06:44:00,
2013-04-01 23:49:00,41.8,36.1,31.26,SW,226,0.0,0.0,80,0.00,,---,0.00,VWS V14.01,2013-04-02 06:49:00,
2013-04-01 23:55:00,41.6,35.9,31.26,SSW,209,0.0,0.0,80,0.00,,---,0.00,VWS V14.01,2013-04-02 06:55:00,